星链-32253 (STARLINK-32253)

导读 | 豆包AI

STARLINK-32253是美国SpaceX公司星链(Starlink)卫星互联网项目的一员,于2024年8月28日发射升空,属于低轨通信卫星。它运行在近地轨道,依托星链星座的激光通信与先进推进技术,旨在为全球尤其是偏远地区提供高速低延迟互联网服务,进一步扩展了星链网络的覆盖范围,推动全球互联基础设施建设。

Basic Information
目录编号:
60733
目录名称:
STARLINK-32253
国际标识:
2024-152P
轨道中心:
EARTH
卫星名称:
星链-32253 (STARLINK-32253)
卫星全名:
星链-32253 (STARLINK-32253)
卫星状态:
在轨 (已飞行611 天)
发射日期:
2024-08-28 UTC
国别 :
美国 (US)
星等 :
--
Orbit Information
数据来源 国际轨道数据 AOE轨道数据
星历时间 2026-05-01T06:52:26+0800
6小时前
查看轨道信息
2026-04-27T00:00:00+0800
4天前
查看轨道信息
半长轴 6853.355km 6853.37km
偏心率 0.0000953 0.0000634
轨道倾角 53.162° 53.161°
近地点辐角 85.379° 91.729°
升交点赤经 25.585° 45.496°
平近点角 274.732° 42.635°
近地点 474.564km 474.798km
远地点 475.872km 475.668km
周期 94.105分钟 94.106分钟
每日圈数 15.301991 15.301942
Detailed Information
卫星平台:
Starlink v2.0 mini
运营商:
太空探索技术公司
运营商所在国:
美国
制造商(研发单位):
太空探索技术公司
制造商所在国:
美国
使用方式:
暂无
Satellite Introduction
星链(Starlink)计划是由太空探索技术公司(SpaceX)提出的一个巨型低轨卫星互联网星座项目,计划在2019年至2024年间在太空搭建由约1.2万颗卫星组成的“星链”网络,其中1584颗将部署在地球上空550千米处的近地轨道,并从2020年开始工作。该卫星仍在工作。
2D Orbit Map
3D Orbit Map
Orbit Altitude Analysis Chart
Orbit Inclination Analysis Chart
Orbit Comprehensive Analysis Chart
View Comprehensive Chart